Location: Unspecified
(0.0000°N, 0.0000°E)
Time: 05:50:56
(UTC+01:00)

BlueWalker 3 - Visible Passes

Search period start: 17 January 2026 00:00
Search period end: 27 January 2026 00:00
Orbit: 451 x 463 km, 53.2° (Epoch: 16 January)

Date Brightness Start Highest point End Pass type
(mag) Time Alt. Az. Time Alt. Az. Time Alt. Az.
17 Jan 4.6 05:36:52 10° NE 05:38:00 11° NE 05:39:09 10° ENE visible
18 Jan 2.4 06:36:37 10° NW 06:39:59 39° SW 06:43:23 10° SSE visible
19 Jan 1.7 06:03:16 33° NW 06:04:41 64° WSW 06:08:15 10° SSE visible
20 Jan 2.3 05:30:02 56° SE 05:30:02 56° SE 05:32:58 10° SE visible
21 Jan 4.7 04:56:44 15° SE 04:56:44 15° SE 04:57:32 10° SE visible
